Laurinburg-Maxton, NC

8:24 PM EDT on August 23, 2017 (GMT -0400)
Laurinburg-Maxton

Weather History for KMEB - May, 2014

Change the Weather History Date:

Sunday, May 11, 2014

  Actual Average (KHFF) Record (KHFF)
Temperature  
Mean Temperature 75 °F -  
Max Temperature 88 °F 78 °F 91 °F (2001)
Min Temperature 64 °F 58 °F 49 °F (2012)
Cooling Degree Days 10    
Growing Degree Days 25 (Base 50)    
Moisture  
Dew Point 64 °F    
Average Humidity 71    
Maximum Humidity 97    
Minimum Humidity 43    
Precipitation  
Precipitation 0.00 in - - ()
Sea Level Pressure  
Sea Level Pressure 30.11 in    
Wind  
Wind Speed 5 mph (SW)    
Max Wind Speed 10 mph    
Max Gust Speed -    
Visibility 10 miles    
Events      
Averages and records for this station are not official NWS values.
T = Trace of Precipitation, MM = Missing Value Source: NWS Daily Summary

Daily Weather History Graph

Daily Weather History Graph

Search for Another Location

Airport or City:

Trip Planner

Search our weather history database for the weather conditions in past years. The results will help you decide how hot, cold, wet, or windy it might be!

Date:

Astronomy

May. 11, 2014 Rise Set
Actual Time 6:17 AM EDT 8:10 PM EDT
Civil Twilight 5:49 AM EDT 8:38 PM EDT
Nautical Twilight 5:16 AM EDT 9:11 PM EDT
Astronomical Twilight 4:40 AM EDT 9:47 PM EDT
Moon 5:12 PM EDT (5/11) 4:13 AM EDT (5/11)
Length of Visible Light 14h 48m
Length of Day
13h 53m
Waxing Gibbous, 89% of the Moon is Illuminated
May 11
Waxing Gibbous
May 14
Full
May 21
Last Quarter
May 28
New
Jun 5
First Quarter

Hourly Weather History & Observations

Time (EDT) Temp. Heat Index Dew Point Humidity Pressure Visibility Wind Dir Wind Speed Gust Speed Precip Events Conditions
12:52 AM 70.0 °F - 61.0 °F 73% 30.08 in 10.0 mi SSW 5.8 mph - N/A   Mostly Cloudy
2:52 AM 70.0 °F - 64.0 °F 81% 30.06 in 10.0 mi SSW 6.9 mph - N/A   Partly Cloudy
3:52 AM 66.9 °F - 64.0 °F 90% 30.07 in 10.0 mi SW 4.6 mph - N/A   Clear
4:52 AM 66.9 °F - 64.9 °F 93% 30.07 in 10.0 mi SW 5.8 mph - N/A   Clear
5:52 AM 66.0 °F - 64.0 °F 93% 30.07 in 6.0 mi Calm Calm - N/A   Clear
6:52 AM 64.9 °F - 64.0 °F 97% 30.10 in 5.0 mi WSW 3.5 mph - N/A   Clear
7:52 AM 70.0 °F - 64.9 °F 84% 30.13 in 10.0 mi West 3.5 mph - N/A   Clear
8:52 AM 73.0 °F - 64.0 °F 73% 30.14 in 10.0 mi West 8.1 mph - N/A   Clear
9:52 AM 75.9 °F - 64.0 °F 67% 30.16 in 10.0 mi WNW 10.4 mph - N/A   Clear
10:52 AM 78.1 °F - 64.9 °F 64% 30.15 in 10.0 mi WSW 4.6 mph - N/A   Partly Cloudy
11:52 AM 81.0 °F 82.5 °F 64.0 °F 56% 30.15 in 10.0 mi WNW 4.6 mph - N/A   Mostly Cloudy
12:52 PM 81.0 °F 82.2 °F 63.0 °F 54% 30.14 in 10.0 mi Variable 3.5 mph - N/A   Unknown
2:52 PM 82.9 °F 83.7 °F 62.1 °F 49% 30.11 in 10.0 mi Calm Calm - N/A   Unknown
3:52 PM 86.0 °F 86.1 °F 61.0 °F 43% 30.09 in 10.0 mi North - - N/A   Unknown
5:52 PM 84.9 °F 86.1 °F 64.0 °F 49% 30.08 in 10.0 mi South 10.4 mph - N/A   Unknown
6:52 PM 84.0 °F 85.4 °F 64.0 °F 51% 30.08 in 10.0 mi South 9.2 mph - N/A   Unknown
7:52 PM 80.1 °F 82.3 °F 66.9 °F 64% 30.09 in 10.0 mi South 5.8 mph - N/A   Unknown
8:52 PM 77.0 °F - 66.9 °F 71% 30.11 in 10.0 mi SSE 6.9 mph - N/A   Unknown
9:52 PM 73.9 °F - 66.9 °F 79% 30.14 in 10.0 mi SSW 5.8 mph - N/A   Unknown
10:52 PM 73.0 °F - 66.0 °F 79% 30.15 in 10.0 mi Calm Calm - N/A   Unknown
11:52 PM 69.1 °F - 66.0 °F 90% 30.15 in 10.0 mi Calm Calm - N/A   Unknown